Marfa, TX

9:11 AM CST on January 22, 2018 (GMT -0600)
Marfa Municipal

Weather History for KMRF - October, 2010

Change the Weather History Date:

Saturday, October 30, 2010

  Actual Average Record
Temperature  
Mean Temperature 58 °F -  
Max Temperature 82 °F 68 °F 82 °F (2010)
Min Temperature 33 °F 39 °F 30 °F (1996)
Degree Days  
Heating Degree Days 8    
Growing Degree Days 8 (Base 50)    
Moisture  
Dew Point 29 °F    
Average Humidity 43    
Maximum Humidity 75    
Minimum Humidity 13    
Precipitation  
Precipitation 0.00 in - - ()
Sea Level Pressure  
Sea Level Pressure 30.22 in    
Wind  
Wind Speed 6 mph (NNW)    
Max Wind Speed 12 mph    
Max Gust Speed 17 mph    
Visibility 10 miles    
Events      
Averages and records for this station are not official NWS values.
T = Trace of Precipitation, MM = Missing Value Source: NWS Daily Summary

Daily Weather History Graph

Daily Weather History Graph

Search for Another Location

Airport or City:

Trip Planner

Search our weather history database for the weather conditions in past years. The results will help you decide how hot, cold, wet, or windy it might be!

Date:

Astronomy

Oct. 30, 2010 Rise Set
Actual Time 8:08 AM CDT 7:10 PM CDT
Civil Twilight 7:44 AM CDT 7:34 PM CDT
Nautical Twilight 7:15 AM CDT 8:03 PM CDT
Astronomical Twilight 6:47 AM CDT 8:31 PM CDT
Moon 1:00 AM CDT (10/30) 2:44 PM CDT (10/30)
Length of Visible Light 11h 50m
Length of Day
11h 01m
Waning Gibbous, 48% of the Moon is Illuminated
Oct 30
Waning Gibbous
Nov 5
New
Nov 13
First Quarter
Nov 21
Full
Nov 28
Last Quarter

Hourly Weather History & Observations

Time (CDT) Temp. Windchill Dew Point Humidity Pressure Visibility Wind Dir Wind Speed Gust Speed Precip Events Conditions
12:15 AM 39.2 °F 35.0 °F 26.6 °F 61% 30.31 in 10.0 mi NNW 5.8 mph - N/A   Clear
12:35 AM 39.2 °F 35.0 °F 28.4 °F 65% 30.30 in 10.0 mi NNW 5.8 mph - N/A   Clear
12:55 AM 42.8 °F 39.3 °F 28.4 °F 57% 30.29 in 10.0 mi NNW 5.8 mph - N/A   Clear
1:15 AM 39.2 °F 35.0 °F 28.4 °F 65% 30.29 in 10.0 mi North 5.8 mph - N/A   Clear
1:35 AM 39.2 °F 35.9 °F 28.4 °F 65% 30.28 in 10.0 mi North 4.6 mph - N/A   Clear
1:55 AM 37.4 °F 34.9 °F 26.6 °F 65% 30.28 in 10.0 mi NNW 3.5 mph - N/A   Clear
2:15 AM 37.4 °F 32.8 °F 26.6 °F 65% 30.27 in 10.0 mi NNW 5.8 mph - N/A   Clear
2:35 AM 37.4 °F 32.8 °F 26.6 °F 65% 30.27 in 10.0 mi North 5.8 mph - N/A   Clear
2:55 AM 37.4 °F 33.8 °F 28.4 °F 70% 30.27 in 10.0 mi NNE 4.6 mph - N/A   Clear
3:15 AM 37.4 °F 32.8 °F 26.6 °F 65% 30.27 in 10.0 mi NNE 5.8 mph - N/A   Clear
3:35 AM 35.6 °F 31.7 °F 26.6 °F 70% 30.26 in 10.0 mi North 4.6 mph - N/A   Clear
3:55 AM 37.4 °F 32.8 °F 26.6 °F 65% 30.26 in 10.0 mi North 5.8 mph - N/A   Clear
4:15 AM 37.4 °F 33.8 °F 26.6 °F 65% 30.25 in 10.0 mi North 4.6 mph - N/A   Clear
4:35 AM 37.4 °F 32.8 °F 28.4 °F 70% 30.25 in 10.0 mi NNE 5.8 mph - N/A   Clear
4:55 AM 37.4 °F 31.4 °F 26.6 °F 65% 30.24 in 10.0 mi NNE 8.1 mph - N/A   Clear
5:15 AM 35.6 °F 29.9 °F 26.6 °F 70% 30.24 in 10.0 mi North 6.9 mph - N/A   Clear
5:35 AM 35.6 °F 30.7 °F 26.6 °F 70% 30.24 in 10.0 mi NNW 5.8 mph - N/A   Clear
5:55 AM 35.6 °F 29.9 °F 26.6 °F 70% 30.24 in 10.0 mi NNW 6.9 mph - N/A   Clear
6:15 AM 35.6 °F 31.7 °F 26.6 °F 70% 30.24 in 10.0 mi NNW 4.6 mph - N/A   Clear
6:35 AM 33.8 °F 28.6 °F 26.6 °F 75% 30.25 in 10.0 mi North 5.8 mph - N/A   Clear
6:55 AM 33.8 °F 28.6 °F 26.6 °F 75% 30.25 in 10.0 mi North 5.8 mph - N/A   Clear
7:15 AM 35.6 °F 30.7 °F 26.6 °F 70% 30.25 in 10.0 mi NNE 5.8 mph - N/A   Clear
7:35 AM 35.6 °F 31.7 °F 28.4 °F 75% 30.25 in 10.0 mi NE 4.6 mph - N/A   Clear
7:55 AM 35.6 °F 32.8 °F 28.4 °F 75% 30.25 in 10.0 mi NNE 3.5 mph - N/A   Clear
8:15 AM 35.6 °F 32.8 °F 28.4 °F 75% 30.25 in 10.0 mi NNE 3.5 mph - N/A   Clear
8:35 AM 37.4 °F 33.8 °F 30.2 °F 75% 30.25 in 10.0 mi North 4.6 mph - N/A   Clear
8:55 AM 42.8 °F 40.1 °F 30.2 °F 61% 30.25 in 10.0 mi North 4.6 mph - N/A   Clear
9:15 AM 48.2 °F - 33.8 °F 58% 30.26 in 10.0 mi Calm Calm - N/A   Clear
9:35 AM 53.6 °F - 33.8 °F 47% 30.27 in 10.0 mi Calm Calm - N/A   Clear
9:55 AM 57.2 °F - 33.8 °F 41% 30.27 in 10.0 mi Calm Calm - N/A   Clear
10:15 AM 60.8 °F - 35.6 °F 39% 30.27 in 10.0 mi Calm Calm - N/A   Clear
10:35 AM 62.6 °F - 35.6 °F 37% 30.27 in 10.0 mi SSE 3.5 mph - N/A   Clear
10:55 AM 64.4 °F - 35.6 °F 34% 30.27 in 10.0 mi South 3.5 mph - N/A   Clear
11:15 AM 66.2 °F - 35.6 °F 32% 30.27 in 10.0 mi Calm Calm - N/A   Clear
11:35 AM 68.0 °F - 35.6 °F 30% 30.26 in 10.0 mi Calm Calm - N/A   Clear
11:55 AM 69.8 °F - 35.6 °F 28% 30.26 in 10.0 mi Calm Calm - N/A   Clear
12:15 PM 73.4 °F - 37.4 °F 27% 30.25 in 10.0 mi South 3.5 mph - N/A   Clear
12:35 PM 75.2 °F - 37.4 °F 25% 30.25 in 6.0 mi SSE 8.1 mph - N/A   Clear
12:55 PM 75.2 °F - 35.6 °F 24% 30.24 in 10.0 mi SE 3.5 mph - N/A   Clear
1:15 PM 78.8 °F - 35.6 °F 21% 30.22 in 10.0 mi South 6.9 mph - N/A   Clear
1:35 PM 78.8 °F - 35.6 °F 21% 30.21 in 10.0 mi SE 6.9 mph - N/A   Clear
1:55 PM 80.6 °F - 33.8 °F 18% 30.20 in 10.0 mi WNW 6.9 mph - N/A   Clear
2:15 PM 80.6 °F - 32.0 °F 17% 30.18 in 10.0 mi WNW 4.6 mph - N/A   Clear
2:35 PM 80.6 °F - 30.2 °F 16% 30.17 in 10.0 mi South 3.5 mph - N/A   Clear
2:55 PM 82.4 °F - 30.2 °F 15% 30.15 in 10.0 mi West 8.1 mph - N/A   Clear
3:15 PM 82.4 °F - 30.2 °F 15% 30.15 in 10.0 mi West 11.5 mph - N/A   Clear
3:35 PM 82.4 °F - 28.4 °F 14% 30.14 in 10.0 mi West 10.4 mph 17.3 mph N/A   Clear
3:55 PM 82.4 °F - 28.4 °F 14% 30.13 in 10.0 mi West 9.2 mph - N/A   Clear
4:15 PM 82.4 °F - 26.6 °F 13% 30.13 in 10.0 mi West 8.1 mph - N/A   Clear
4:35 PM 82.4 °F - 26.6 °F 13% 30.13 in 10.0 mi WSW 5.8 mph - N/A   Clear
4:55 PM 82.4 °F - 26.6 °F 13% 30.12 in 10.0 mi WNW 11.5 mph 17.3 mph N/A   Clear
5:15 PM 82.4 °F - 26.6 °F 13% 30.12 in 10.0 mi West 11.5 mph 17.3 mph N/A   Clear
5:35 PM 82.4 °F - 26.6 °F 13% 30.12 in 10.0 mi WNW 11.5 mph - N/A   Clear
5:55 PM 80.6 °F - 24.8 °F 13% 30.12 in 10.0 mi WNW 6.9 mph - N/A   Clear
6:15 PM 80.6 °F - 26.6 °F 14% 30.12 in 10.0 mi West 10.4 mph - N/A   Clear
6:55 PM 75.2 °F - 26.6 °F 17% 30.12 in 10.0 mi West 9.2 mph - N/A   Clear
7:15 PM 71.6 °F - 24.8 °F 17% 30.12 in 10.0 mi West 9.2 mph - N/A   Clear
7:35 PM 66.2 °F - 24.8 °F 21% 30.13 in 10.0 mi WNW 9.2 mph - N/A   Clear
7:55 PM 64.4 °F - 26.6 °F 24% 30.13 in 10.0 mi NW 11.5 mph - N/A   Clear
8:15 PM 62.6 °F - 26.6 °F 26% 30.14 in 10.0 mi NW 10.4 mph - N/A   Clear
8:35 PM 60.8 °F - 26.6 °F 27% 30.14 in 10.0 mi NW 11.5 mph - N/A   Clear
8:55 PM 60.8 °F - 26.6 °F 27% 30.14 in 10.0 mi NNW 8.1 mph - N/A   Clear
9:15 PM 57.2 °F - 26.6 °F 31% 30.15 in 10.0 mi ENE 6.9 mph - N/A   Clear
9:35 PM 60.8 °F - 26.6 °F 27% 30.15 in 10.0 mi East 5.8 mph - N/A   Clear
9:55 PM 59.0 °F - 26.6 °F 29% 30.15 in 10.0 mi East 6.9 mph - N/A   Clear
10:15 PM 57.2 °F - 26.6 °F 31% 30.15 in 10.0 mi East 3.5 mph - N/A   Clear
10:35 PM 55.4 °F - 26.6 °F 33% 30.15 in 10.0 mi Calm Calm - N/A   Clear
10:55 PM 51.8 °F - 26.6 °F 38% 30.15 in 10.0 mi Calm Calm - N/A   Clear
11:15 PM 51.8 °F - 26.6 °F 38% 30.15 in 10.0 mi East 3.5 mph - N/A   Clear
11:35 PM 51.8 °F - 26.6 °F 38% 30.15 in 10.0 mi NNE 3.5 mph - N/A   Clear
11:55 PM 48.2 °F - 26.6 °F 43% 30.15 in 10.0 mi Calm Calm - N/A   Clear